Location: Cahas Mountain Overlook
(37.0833°N, 80.1000°W)
Time: 12:03:49
(UTC-05:00)

Courier 1B Rocket - Pass Details

Date: 08 December 2023
Orbit: 920 x 1202 km, 28.2° (Epoch: 01 March)

Event Time Altitude Azimuth Distance (km) Brightness Sun altitude
Rises 15:15:20 0° 263° (W) 3,648 8.8 16.3°
Reaches altitude 10° 15:18:29 10° 250° (WSW) 2,664 8.7 15.8°
Maximum altitude 15:23:30 25° 198° (SSW) 1,790 7.8 15.1°
Drops below altitude 10° 15:28:24 10° 146° (SE) 2,598 7.4 14.4°
Sets 15:31:27 0° 133° (SE) 3,539 7.9 14.0°
